ROMMA est une association bénévole à but non lucratif. Votre soutien est indispensable : ADHERER à ROMMA ou FAIRE un DON

Saint-Léger-les-Mélèzes - (05, Hautes-Alpes)

Champsaur (1245 m)   Longitude: 6° 11' 42" E    Latitude: 44° 38' 38" N Station partenaire n°51
 

Détail journalier du     <<     >>

Température Precipitation Humidité Vent Dir Rafale Dir. rafale Ensol.
Heure (°C) (mm) (%) (km/h) (km/h) (min)
01:00 12.70641SO6SO0
02:00 13.60671S8S0
03:00 13.40691S11SSE0
04:00 13.40702SSO10SSE0
05:00 12.70721S8S0
06:00 11.50751SSO8SSE0
07:00 10.70733S16SSE0
08:00 9.80792E19SSO0
09:00 9.40811SSE5SSE0
10:00 11.207805ONO30
11:00 12.40681ONO11SSE0
12:00 14.00582NE16O0
13:00 15.60533ONO16NO20
14:00 17.20452ONO16ONO60
15:00 18.10383ONO13ONO60
16:00 19.10372ONO15ONO60
17:00 19.20372ONO15ONO60
18:00 18.60391SO10SSE50
19:00 15.40511S8S0
20:00 12.90611S8SSO0
21:00 11.40661S5S0
22:00 10.50692S6S0
23:00 9.70721S5S0
minuit 8.90742SSO6S0

Graphique du 28-09-2019

 

Serveur OMMA